Location: Unspecified
(0.0000°N, 0.0000°E)
Time: 18:26:23
(UTC+00:00)

SR - Pass Details

Date: 02 August 2021
Orbit: 581 x 874 km, 66.7° (Epoch: 25 September)

Event Time Altitude Azimuth Distance (km) Brightness Sun altitude
Exits shadow 04:29:30 45° 218° (SW) 1,162 ? -23.0°
Maximum altitude 04:31:19 73° 290° (WNW) 910 ? -22.6°
Drops below altitude 10° 04:37:09 10° 14° (NNE) 2,502 ? -21.2°
Sets 04:39:37 0° 16° (NNE) 3,422 ? -20.6°
